Iowa Falls Municipal Airport
Sunday 1:35 PM
Temperature73° (74°/52°)
Dew Point42°
Relative Humidity32
%
Visibility10
mi
Pressure1025.4
mb
Wind DirectionS
170°
Wind Speed13
mph
(G16)
Precipitation Today0.00"

Last 30 Observations

Time PresWx Temp DP Feels RH% Vsby Pressure Ceiling Direction Speed 1h Precip
1:15 PM 73° 41° 32
%
10
mi
1025.7
mb
11,000
ft
S
170°
11
mph
0.00"
12:35 PM 72° 41° 33
%
10
mi
1026.1
mb
8,000
ft
SSE
160°
10
mph
0.00"
12:15 PM 72° 41° 33
%
10
mi
1026.4
mb
11,000
ft
S
170°
13
mph
0.00"
11:55 AM 72° 42° 34
%
10
mi
1026.4
mb
11,000
ft
S
180°
11
mph
0.00"
11:35 AM 71° 42° 36
%
10
mi
1026.4
mb
8,000
ft
SSE
150°
10
mph
0.00"
11:15 AM 70° 43° 37
%
10
mi
1026.8
mb
11,000
ft
SSE
160°
13
mph
0.00"
10:55 AM 68° 43° 40
%
10
mi
1026.8
mb
12,000
ft
SSE
150°
13
mph
0.00"
10:35 AM 68° 43° 40
%
1026.8
mb
SE
140°
13
mph
0.00"
10:15 AM 67° 42° 41
%
10
mi
1027.1
mb
9,000
ft
SSE
150°
11
mph
0.00"
9:55 AM 65° 42° 44
%
10
mi
1027.1
mb
12,000
ft
SSE
150°
10
mph
0.00"
9:35 AM 64° 43° 47
%
10
mi
1027.1
mb
9,000
ft
SSE
150°
11
mph
0.00"
9:15 AM 63° 43° 48
%
10
mi
1027.4
mb
9,000
ft
SE
140°
8
mph
0.00"
8:55 AM 62° 42° 48
%
10
mi
1027.1
mb
9,000
ft
SE
130°
9
mph
0.00"
8:35 AM 62° 41° 46
%
10
mi
1027.1
mb
10,000
ft
SE
130°
10
mph
0.00"
8:15 AM 61° 42° 50
%
10
mi
1027.1
mb
10,000
ft
SE
130°
8
mph
0.00"
7:55 AM 61° 42° 51
%
10
mi
1027.1
mb
10,000
ft
ESE
120°
9
mph
0.00"
7:35 AM 58° 44° 59
%
10
mi
1026.8
mb
10,000
ft
ESE
120°
6
mph
0.00"
7:15 AM 57° 45° 63
%
10
mi
1026.4
mb
10,000
ft
ESE
110°
6
mph
0.00"
6:55 AM 55° 45° 67
%
10
mi
1026.4
mb
9,000
ft
E
90°
5
mph
0.00"
6:35 AM 54° 45° 70
%
10
mi
1026.4
mb
11,000
ft
E
90°
3
mph
0.00"
6:15 AM 53° 43° 69
%
10
mi
1026.1
mb
11,000
ft
E
80°
5
mph
0.00"
5:55 AM 52° 44° 74
%
10
mi
1025.7
mb
Calm 0.00"
5:35 AM 53° 43° 68
%
10
mi
1025.7
mb
E
90°
3
mph
0.00"
5:15 AM 53° 44° 71
%
10
mi
1025.4
mb
E
90°
3
mph
0.00"
4:55 AM 54° 44° 69
%
10
mi
1025.4
mb
Calm 0.00"
4:35 AM 54° 44° 70
%
10
mi
1025.4
mb
E
90°
3
mph
0.00"
4:15 AM 54° 45° 71
%
10
mi
1025.7
mb
Calm 0.00"
3:55 AM 54° 45° 72
%
10
mi
1025.4
mb
E
90°
3
mph
0.00"
3:35 AM 55° 44° 66
%
10
mi
1025.7
mb
E
80°
5
mph
0.00"
3:15 AM 55° 44° 67
%
10
mi
1025.7
mb
Calm 0.00"